Location: Les Moreaux
(47.2278°N, 1.4966°E)
Time: 21:00:02
(UTC+00:00)

USA 186 - Pass Details

Date: 19 May 2025
Orbit: 338 x 359 km, 97.0° (Epoch: 19 May)

Event Time Altitude Azimuth Distance (km) Brightness Sun altitude
Rises 20:33:40 0° 203° (SSW) 2,115 5.1 -9.6°
Reaches altitude 10° 20:36:07 10° 229° (SW) 1,284 4.3 -9.9°
Maximum altitude 20:37:47 15° 267° (W) 1,048 4.4 -10.1°
Drops below altitude 10° 20:39:28 10° 305° (NW) 1,295 5.8 -10.3°
Sets 20:41:57 0° 330° (NNW) 2,145 7.1 -10.6°
